Temperature
21 21 21 21 21 21 21 21 21 22 22 22 23 22 21 21 20 19 18 18 18 17 17 17 17 17 17 17 17 17 16 16 16 16 16 16 16 15 15 15 15 15 15 15
21 21 21 21 21 21 21 21 21 21 22 23 22 22 21 21 20 19 19 18 18 18 17 17 17 17 17 17 17 17 16 16 16 16 16 16 15 15 15 15 15 15 15 15
20 21 20 20 21 21 21 21 21 21 22 22 22 21 21 21 20 19 19 18 18 18 18 18 18 17 17 17 17 17 16 16 16 16 16 16 16 15 15 15 15 15 15 15
20 20 19 22 22 22 21 21 21 21 22 22 21 20 20 20 19 19 19 18 18 18 18 18 18 17 17 17 17 17 16 16 16 16 16 16 16 16 15 15 15 15 15 15
19 19 20 21 21 21 21 21 22 21 21 21 20 20 20 19 19 19 19 19 18 18 18 18 18 17 17 17 17 17 17 16 16 16 16 16 16 16 15 15 15 15 15 15
18 18 19 21 22 21 21 21 22 21 21 21 20 21 22 19 18 18 18 18 18 18 18 18 18 17 17 17 17 17 17 17 16 16 16 16 16 16 15 15 15 15 15 15
18 18 20 21 20 20 20 21 21 20 20 20 20 21 20 19 18 18 18 18 18 18 18 18 18 17 17 17 17 17 17 17 16 16 16 16 16 15 15 15 15 15 15 15
18 18 19 20 20 21 21 21 20 20 20 19 19 19 18 18 18 18 18 18 18 18 18 18 18 17 17 17 17 17 17 17 16 16 16 16 15 15 15 15 15 15 14 14
19 20 20 19 20 19 19 20 20 19 19 18 18 18 18 18 17 17 17 17 17 17 17 17 17 17 17 17 17 17 17 16 16 16 16 16 15 15 15 15 14 14 14 14
19 19 19 18 18 18 18 18 19 18 18 18 18 18 17 17 17 17 17 17 17 17 17 17 17 17 17 17 17 17 16 16 16 15 15 15 15 15 14 14 14 14 14 14
18 19 18 18 18 17 17 17 18 18 17 17 17 17 17 17 17 17 17 17 17 17 17 17 17 17 17 17 16 16 16 16 15 15 15 15 15 14 14 14 14 14 14 14
18 19 19 18 17 17 17 17 17 17 17 17 17 17 17 17 17 16 16 16 16 16 16 16 16 16 16 16 16 16 16 15 15 15 15 15 14 14 14 14 14 14 14 14
17 16 17 16 16 16 16 16 16 16 16 16 16 16 17 16 16 16 16 16 16 16 16 16 16 16 16 16 16 15 15 15 15 15 15 14 14 14 14 14 14 14 14 14
15 15 15 16 16 16 16 16 16 16 16 16 16 16 16 16 16 16 16 16 16 16 16 16 16 16 16 15 15 15 15 15 15 15 14 14 14 14 14 14 13 13 13 13
14 15 15 15 15 15 15 15 15 15 15 16 16 16 16 16 16 16 15 15 15 15 15 15 15 15 15 15 15 15 15 15 15 14 14 14 14 14 13 13 13 13 13 13
13 14 14 14 14 14 14 14 15 15 15 15 15 16 15 15 15 15 15 15 15 15 15 15 15 15 15 15 15 15 14 15 14 14 14 14 14 13 13 13 13 12 12 12
13 13 13 14 14 14 14 14 14 15 15 15 15 15 15 15 15 15 15 15 15 15 15 15 14 14 14 14 14 14 14 14 14 14 14 14 13 13 13 13 12 12 12 12
13 13 13 13 13 13 13 14 14 14 14 15 15 15 14 14 15 14 14 14 14 14 14 14 14 14 14 14 14 14 14 14 14 14 13 13 13 13 13 12 12 12 11 11
12 12 13 13 13 13 13 13 13 14 14 14 14 14 14 14 14 14 14 14 14 14 14 14 14 14 14 14 14 13 13 13 13 13 13 13 13 12 12 12 11 11 11 11
12 12 12 12 12 12 13 13 13 13 14 14 14 14 13 13 13 13 13 14 14 14 14 14 14 14 14 14 13 13 13 13 13 12 12 12 12 12 12 11 11 11 10 10
11 11 12 12 12 12 12 12 13 13 13 13 14 13 13 13 13 13 13 13 13 13 13 13 13 13 13 13 13 12 12 12 12 12 12 11 11 11 11 11 10 10 10 10
10 11 11 11 11 11 12 12 12 13 13 13 13 13 13 13 13 13 13 13 13 13 13 13 13 13 13 12 12 12 12 12 11 11 11 11 11 10 10 10 10 10 9 9
10 10 10 11 11 11 11 11 12 12 12 13 12 12 12 12 12 12 12 12 12 12 12 12 12 12 12 12 12 11 11 11 11 11 10 10 10 10 10 10 9 9 9 8
9 9 10 10 10 10 10 11 11 11 12 12 12 12 12 12 12 12 12 12 12 12 12 12 12 12 12 11 11 11 11 11 10 10 10 10 9 9 9 9 9 8 8 8
9 9 9 9 10 10 10 10 10 11 11 11 11 11 11 11 12 12 11 11 11 11 11 11 11 11 11 11 10 10 10 10 10 10 9 9 9 9 8 8 8 8 7 7
8 9 9 9 9 9 9 10 10 10 10 10 10 10 10 11 11 11 11 10 10 11 10 10 10 10 10 10 10 10 9 9 9 9 9 9 8 8 8 8 7 7 7 6
8 8 8 8 8 9 9 9 9 9 10 10 10 10 10 10 10 10 10 10 10 10 9 9 9 9 9 9 9 9 9 9 8 8 8 8 8 7 7 7 7 6 6 6
Wind_Speed
9 6 7 10 11 13 15 14 12 11 10 9 7 5 4 4 4 5 6 7 8 10 11 12 12 13 13 13 13 13 12 12 10 9 9 8 7 7 6 6 5 5 4 4
11 8 8 11 12 14 15 14 14 13 12 8 7 6 6 6 6 7 7 7 8 9 11 12 13 13 13 13 13 13 13 12 11 10 10 9 8 8 7 6 5 5 4 4
10 8 9 12 12 13 13 12 11 12 10 6 5 6 6 6 7 8 8 8 9 10 11 12 13 14 15 14 14 14 13 12 11 11 10 10 9 8 7 6 6 5 4 4
8 8 11 7 5 8 10 11 11 11 9 7 7 6 7 6 7 7 8 8 9 10 10 11 12 13 13 13 14 14 13 12 12 11 11 10 9 9 8 7 6 5 4 4
8 10 10 6 6 8 10 10 9 10 8 6 5 4 5 5 6 7 7 7 7 8 10 11 12 12 14 14 14 14 14 13 13 13 12 11 10 9 8 7 6 5 5 4
9 10 9 6 4 5 8 9 6 7 7 5 5 6 4 2 3 5 5 5 6 7 8 10 11 12 14 15 15 15 14 13 13 12 12 11 10 9 8 7 6 5 5 4
12 11 8 4 3 6 8 3 2 5 6 6 7 5 2 1 2 3 4 4 6 7 8 9 11 13 14 14 14 13 12 12 12 12 11 11 9 8 8 7 7 6 5 4
12 11 8 5 6 6 3 1 2 4 5 5 5 3 2 2 2 2 3 5 6 7 8 9 11 13 13 13 12 12 12 12 12 11 10 9 9 8 8 8 7 7 6 5
9 8 3 6 6 4 3 3 3 3 4 4 3 3 3 2 2 3 4 5 6 7 8 9 10 11 12 11 11 12 12 12 11 11 10 9 10 9 8 8 7 7 6 5
8 8 7 6 5 4 5 5 4 4 4 4 4 3 3 2 2 2 3 5 6 8 9 9 9 9 9 9 11 12 13 12 11 11 10 9 8 8 7 7 7 7 6 6
11 8 7 8 6 4 4 4 4 3 4 4 4 4 3 3 2 3 4 5 6 7 7 8 8 8 8 9 11 12 12 11 11 10 10 9 7 5 6 6 6 6 6 6
9 7 7 7 5 4 5 5 5 4 3 3 3 4 3 3 3 3 4 5 6 7 7 8 8 8 8 9 11 12 11 11 9 9 9 8 8 6 5 3 5 4 3 3
7 5 6 5 5 5 6 5 5 5 4 3 2 3 3 3 3 4 5 6 6 7 7 8 8 8 8 9 10 11 11 10 9 9 9 9 8 8 7 5 6 5 4 4
7 5 6 5 5 4 4 4 4 4 3 3 3 3 3 3 4 5 5 6 6 7 7 7 8 7 8 8 10 10 10 9 9 8 8 8 8 8 7 7 6 4 4 6
8 8 7 4 3 3 3 4 4 3 3 3 3 3 4 4 5 5 5 6 7 7 7 7 8 7 7 8 9 10 9 8 8 8 8 8 8 7 7 7 7 6 6 6
7 6 6 5 4 4 5 5 4 4 3 3 4 4 4 5 5 6 6 7 8 7 7 7 7 7 7 8 8 7 7 9 8 8 8 8 8 8 7 7 7 6 6 6
7 7 6 6 6 5 5 5 4 4 3 4 4 4 5 6 6 6 6 6 6 6 6 6 6 7 7 8 8 7 7 8 9 8 7 8 7 7 7 7 7 6 5 5
9 8 8 8 7 6 5 4 4 4 4 3 4 5 6 6 7 7 7 7 7 6 5 5 6 7 7 7 7 6 6 7 7 7 7 7 7 7 7 7 7 7 6 6
7 7 6 6 6 6 5 4 4 3 4 4 5 6 6 6 6 7 7 8 7 6 5 5 6 7 7 7 6 6 6 7 7 7 7 8 7 7 7 7 7 7 7 6
6 6 5 5 4 5 4 4 4 4 4 5 6 6 6 6 6 7 7 6 4 4 6 6 7 6 7 7 7 6 7 7 7 7 7 7 7 7 7 7 7 7 7 6
5 5 5 4 4 4 4 4 5 5 5 6 6 6 6 6 6 7 7 5 4 5 6 7 6 6 6 7 7 6 6 7 7 7 7 7 7 7 7 7 7 7 6 6
5 5 4 4 4 3 3 4 5 5 5 5 6 7 7 7 6 5 5 4 5 5 5 5 5 7 8 8 6 6 7 7 7 7 7 7 7 7 7 7 7 6 6 6
3 3 3 3 3 3 3 3 4 5 5 5 6 7 7 6 6 6 4 4 5 6 5 5 7 10 9 7 6 7 7 7 7 7 7 7 7 7 7 7 7 7 6 6
2 2 2 2 3 4 4 3 3 4 5 4 5 6 7 6 4 3 4 6 7 7 5 7 10 10 8 6 6 6 7 7 7 7 7 7 7 7 7 7 7 7 6 7
2 2 3 3 3 3 4 4 4 5 5 4 5 5 4 4 4 5 5 6 8 8 6 8 10 9 6 6 6 6 6 6 7 7 7 7 7 7 7 7 7 7 6 6
3 2 2 2 2 3 3 4 4 4 4 4 4 4 4 4 5 5 5 7 8 8 7 6 6 6 5 6 6 7 7 7 7 7 7 7 8 8 7 7 8 7 6 6
3 2 2 2 2 2 3 3 4 4 4 5 5 4 5 5 5 6 7 6 6 6 6 6 5 5 6 6 6 6 6 6 7 7 7 7 7 7 7 8 7 7 7 7
Wind_Direction
247 256 234 236 230 221 227 240 252 261 266 272 273 272 252 224 200 194 190 188 187 187 187 186 185 187 184 182 180 178 181 185 184 181 179 176 170 170 172 170 171 167 161 155
236 236 241 244 236 228 232 241 250 262 267 274 272 258 238 218 212 214 209 203 196 193 190 189 187 187 184 182 182 181 183 185 180 180 176 175 175 172 169 168 168 165 167 156
237 234 249 242 233 227 228 234 241 249 258 262 261 252 242 223 216 220 216 208 201 196 196 192 190 189 186 184 181 183 184 183 179 180 177 177 174 171 169 169 166 164 163 157
237 232 238 241 215 225 227 232 236 247 259 252 255 258 248 230 216 224 218 210 207 202 199 196 191 188 184 181 182 183 184 183 181 180 178 176 174 173 172 170 164 163 159 160
226 234 247 238 219 216 224 235 231 237 249 250 254 239 223 218 224 224 218 208 205 204 198 192 188 183 179 181 182 183 184 183 182 181 178 177 177 178 175 170 167 164 157 160
224 230 237 224 186 206 224 233 220 224 232 227 219 230 224 219 229 226 216 203 196 191 186 185 181 177 177 180 182 185 184 182 180 179 177 177 179 178 173 170 169 163 156 165
225 233 242 231 179 185 215 230 190 216 223 215 220 245 251 229 223 214 206 196 183 179 178 177 173 173 177 179 184 182 177 175 175 176 176 174 173 172 171 169 166 167 162 165
217 225 229 166 172 200 243 341 200 214 219 222 232 249 247 227 210 195 183 181 177 174 173 169 171 176 178 182 180 172 170 172 173 175 174 168 166 169 171 170 166 168 171 170
217 225 201 175 201 227 273 262 248 230 222 215 222 229 234 224 197 180 172 174 173 171 166 165 170 178 181 180 172 169 168 170 172 172 170 166 167 169 171 175 177 177 179 178
224 225 217 215 217 236 247 257 257 238 224 219 221 222 221 213 189 177 171 166 165 166 167 166 168 175 179 169 168 169 169 169 169 169 165 165 167 172 174 178 181 182 183 184
228 228 220 222 225 242 249 255 243 231 228 221 212 212 204 193 181 179 170 163 162 164 166 166 165 166 166 164 168 168 168 168 168 167 164 163 163 167 180 180 187 185 185 184
223 215 223 224 226 240 243 242 236 227 228 220 209 204 199 187 175 171 167 160 159 161 163 164 163 160 160 163 168 168 167 167 168 167 164 163 159 146 81 89 108 121 127 165
243 237 251 250 246 239 238 241 236 228 222 214 209 197 190 178 170 165 162 160 160 161 162 161 160 158 158 163 166 170 168 165 165 166 165 167 168 164 156 116 89 97 113 128
234 233 242 237 239 238 234 231 221 216 212 201 183 169 162 159 155 157 160 159 158 156 157 156 154 154 157 161 165 167 165 161 162 163 165 168 170 170 167 162 154 140 118 122
229 232 236 234 233 225 208 200 196 192 187 181 169 160 157 157 152 148 149 149 148 149 151 153 152 153 155 160 163 164 162 162 163 161 163 165 164 165 164 162 157 152 143 130
233 236 220 211 216 221 207 198 195 191 189 183 173 163 158 152 143 139 141 146 148 148 150 154 155 154 157 160 159 158 158 152 156 158 160 159 161 163 163 161 159 159 159 155
211 214 210 207 210 214 215 209 202 194 187 185 173 160 153 146 141 142 144 147 145 143 145 150 155 155 159 162 159 157 155 155 155 158 161 161 161 162 162 161 161 162 160 152
221 222 217 214 212 212 217 215 206 195 187 175 163 158 158 160 156 153 153 151 143 136 139 146 148 151 154 158 157 153 153 156 162 160 160 160 159 159 160 159 161 160 153 143
219 215 210 209 210 210 212 213 206 193 174 167 166 163 161 158 153 152 153 154 153 150 151 145 142 149 148 148 145 149 152 153 153 154 153 149 151 153 156 159 159 158 152 148
200 195 188 192 200 204 205 203 188 176 172 166 161 157 155 153 150 150 153 154 156 154 150 148 149 144 143 145 145 150 150 151 150 150 151 154 155 153 154 155 155 153 150 148
174 171 171 178 194 202 199 193 181 173 169 167 164 160 155 152 151 151 151 150 145 141 143 143 146 144 144 144 148 147 147 148 148 149 150 152 152 151 151 152 150 149 148 146
161 166 169 177 190 199 193 183 175 167 165 166 164 157 153 152 151 146 144 147 147 145 148 149 147 138 140 140 144 143 146 147 146 145 147 148 148 148 148 146 144 142 141 139
150 164 170 180 187 190 175 163 162 164 165 166 166 163 159 157 157 154 153 147 145 144 145 145 138 136 140 142 140 141 143 143 142 143 144 145 145 146 145 143 141 139 138 136
134 146 151 157 159 159 161 156 149 156 159 159 163 162 155 148 144 142 138 141 140 137 138 132 132 135 137 138 139 140 142 141 141 142 140 139 139 139 139 139 137 136 136 134
135 140 140 144 151 155 153 146 144 145 143 139 138 141 143 144 145 141 137 141 137 134 133 132 132 135 137 135 138 139 140 139 139 139 139 138 137 136 135 135 133 131 130 130
136 143 148 156 155 154 154 151 151 151 144 137 132 130 127 126 130 133 132 136 135 132 133 135 138 137 135 134 132 132 132 132 133 135 137 136 135 134 132 131 129 130 129 127
126 132 137 132 134 148 156 158 157 156 153 148 143 139 136 134 134 135 134 133 134 134 132 133 134 134 133 131 129 129 131 131 131 132 134 133 132 131 131 130 129 127 128 130
Height
1499 1500 1501 1503 1504 1506 1507 1504 1506 1502 1501 1498 1498 1500 1502 1503 1505 1507 1508 1510 1512 1515 1518 1521 1524 1528 1532 1536 1539 1543 1546 1550 1553 1556 1558 1561 1563 1565 1567 1568 1569 1570 1571 1572
1501 1499 1499 1500 1498 1500 1501 1500 1500 1500 1499 1495 1497 1499 1500 1501 1503 1504 1506 1508 1510 1512 1515 1518 1521 1525 1529 1533 1536 1540 1544 1548 1551 1554 1556 1559 1562 1564 1566 1567 1569 1570 1571 1572
1500 1497 1499 1500 1492 1493 1495 1495 1496 1498 1495 1494 1496 1497 1497 1499 1501 1502 1503 1505 1507 1509 1512 1515 1518 1522 1526 1530 1534 1537 1541 1545 1548 1552 1555 1558 1560 1562 1564 1566 1568 1569 1570 1571
1499 1500 1507 1489 1484 1487 1490 1491 1491 1492 1492 1493 1494 1495 1496 1497 1498 1499 1500 1502 1504 1506 1508 1512 1515 1519 1523 1526 1531 1535 1539 1542 1546 1549 1552 1555 1558 1560 1563 1565 1566 1568 1569 1570
1498 1500 1493 1486 1484 1485 1487 1488 1487 1488 1489 1491 1492 1493 1493 1494 1495 1496 1498 1499 1501 1503 1505 1508 1512 1515 1519 1523 1527 1532 1535 1539 1543 1546 1550 1553 1556 1558 1561 1563 1565 1567 1568 1569
1495 1499 1497 1483 1481 1483 1486 1486 1484 1485 1486 1488 1490 1489 1489 1491 1492 1493 1495 1496 1498 1500 1502 1505 1509 1512 1516 1520 1524 1528 1532 1536 1540 1544 1547 1550 1553 1556 1559 1561 1563 1565 1567 1568
1492 1492 1483 1478 1480 1483 1489 1483 1482 1483 1484 1486 1487 1486 1488 1489 1490 1491 1492 1493 1495 1497 1500 1503 1506 1510 1513 1517 1521 1525 1530 1533 1537 1541 1544 1548 1551 1554 1556 1559 1561 1563 1565 1567
1487 1490 1486 1478 1480 1480 1479 1479 1480 1482 1483 1484 1485 1486 1486 1487 1488 1488 1489 1491 1493 1495 1498 1501 1504 1507 1511 1515 1519 1523 1527 1530 1534 1538 1542 1545 1548 1551 1554 1556 1558 1561 1563 1564
1476 1476 1474 1476 1477 1478 1479 1479 1480 1480 1481 1482 1483 1484 1485 1485 1486 1486 1487 1489 1491 1493 1495 1498 1502 1505 1509 1513 1517 1520 1524 1528 1532 1535 1539 1542 1545 1548 1551 1553 1556 1558 1560 1562
1472 1471 1473 1475 1476 1477 1478 1478 1479 1479 1480 1481 1481 1482 1483 1483 1484 1485 1486 1487 1489 1491 1494 1497 1499 1503 1507 1510 1514 1518 1521 1525 1529 1532 1536 1539 1543 1546 1548 1550 1553 1555 1557 1559
1469 1469 1471 1472 1474 1475 1476 1476 1477 1477 1478 1479 1479 1480 1480 1481 1482 1483 1484 1486 1487 1490 1492 1495 1498 1501 1505 1508 1512 1515 1519 1522 1526 1530 1533 1537 1540 1543 1545 1548 1550 1553 1555 1557
1465 1466 1468 1469 1471 1473 1473 1474 1475 1475 1476 1476 1477 1477 1478 1479 1480 1482 1483 1485 1486 1489 1491 1494 1497 1500 1503 1506 1509 1513 1516 1520 1523 1527 1530 1534 1537 1540 1543 1545 1548 1550 1552 1554
1465 1466 1467 1467 1469 1470 1471 1472 1472 1473 1473 1474 1475 1476 1476 1477 1478 1480 1482 1484 1486 1488 1490 1493 1495 1498 1501 1504 1508 1511 1514 1518 1521 1524 1528 1531 1534 1537 1540 1543 1545 1547 1549 1551
1463 1464 1465 1465 1466 1467 1468 1469 1470 1470 1471 1472 1472 1474 1475 1476 1477 1479 1481 1483 1485 1487 1489 1492 1494 1497 1500 1503 1506 1510 1513 1516 1519 1522 1525 1528 1532 1534 1537 1540 1542 1544 1547 1548
1460 1461 1461 1462 1463 1465 1465 1466 1467 1468 1469 1470 1471 1472 1473 1474 1475 1477 1480 1482 1484 1486 1488 1491 1493 1496 1499 1502 1505 1508 1511 1514 1517 1520 1523 1526 1529 1532 1535 1537 1540 1542 1544 1546
1456 1457 1458 1459 1460 1462 1463 1464 1465 1466 1467 1468 1469 1470 1472 1473 1475 1477 1479 1481 1483 1485 1487 1490 1493 1495 1498 1501 1504 1506 1509 1512 1515 1518 1521 1524 1527 1529 1532 1534 1537 1539 1541 1543
1452 1453 1455 1456 1458 1459 1460 1462 1463 1464 1465 1466 1467 1469 1470 1472 1474 1476 1478 1481 1483 1485 1487 1489 1492 1494 1497 1500 1502 1505 1507 1510 1513 1516 1518 1521 1524 1527 1529 1532 1534 1537 1539 1541
1448 1450 1451 1453 1454 1456 1458 1459 1460 1462 1463 1464 1465 1467 1469 1470 1472 1475 1477 1480 1483 1485 1487 1489 1491 1493 1496 1498 1501 1503 1505 1508 1511 1514 1516 1519 1522 1524 1527 1529 1532 1535 1536 1538
1444 1446 1448 1450 1452 1454 1455 1457 1458 1459 1461 1462 1464 1465 1467 1469 1471 1473 1476 1479 1481 1483 1485 1488 1490 1492 1494 1497 1499 1502 1504 1506 1509 1512 1514 1517 1519 1522 1524 1527 1529 1532 1533 1535
1441 1443 1445 1447 1449 1451 1453 1454 1455 1457 1459 1460 1462 1464 1466 1468 1470 1472 1474 1477 1479 1481 1483 1486 1488 1491 1493 1495 1498 1500 1502 1505 1507 1510 1512 1514 1517 1519 1522 1524 1526 1528 1530 1532
1439 1441 1443 1445 1447 1449 1450 1452 1453 1455 1457 1459 1461 1462 1465 1467 1469 1471 1473 1475 1478 1480 1482 1484 1487 1489 1491 1494 1496 1499 1501 1503 1506 1508 1510 1512 1514 1517 1519 1521 1523 1525 1528 1529
1437 1439 1440 1442 1444 1446 1448 1449 1451 1453 1455 1457 1459 1461 1463 1465 1467 1470 1472 1474 1476 1478 1480 1483 1485 1487 1490 1492 1495 1497 1499 1502 1504 1505 1508 1510 1512 1515 1517 1519 1521 1523 1526 1527
1435 1437 1438 1440 1442 1443 1445 1447 1449 1451 1453 1455 1457 1459 1461 1463 1465 1468 1470 1472 1474 1477 1479 1481 1483 1486 1488 1490 1493 1495 1497 1499 1502 1504 1506 1508 1510 1513 1515 1517 1519 1521 1523 1525
1434 1435 1437 1439 1440 1442 1443 1445 1447 1449 1451 1454 1456 1458 1460 1461 1464 1466 1468 1470 1472 1475 1477 1479 1482 1484 1487 1488 1491 1493 1495 1498 1500 1502 1504 1506 1509 1511 1513 1515 1517 1519 1522 1523
1433 1434 1436 1437 1439 1440 1442 1443 1445 1448 1450 1452 1454 1456 1458 1460 1462 1464 1466 1468 1471 1473 1475 1478 1480 1483 1485 1487 1489 1491 1494 1496 1498 1500 1503 1505 1507 1509 1511 1513 1515 1518 1520 1521
1432 1434 1435 1436 1437 1438 1440 1442 1444 1446 1448 1450 1452 1455 1456 1458 1461 1463 1465 1467 1469 1471 1473 1476 1478 1481 1483 1485 1487 1490 1492 1495 1497 1499 1501 1503 1506 1508 1510 1512 1514 1516 1518 1519
1432 1433 1434 1435 1437 1438 1439 1441 1443 1445 1447 1449 1451 1453 1455 1457 1459 1462 1464 1466 1468 1470 1472 1474 1477 1479 1481 1484 1486 1488 1491 1493 1495 1498 1500 1502 1504 1506 1508 1510 1512 1514 1516 1517